Home > Weather > Oakland > Past weeks

Flag for U.S.A. Weather for the Past 2 Weeks in Oakland, California, U.S.A.

Now
50 °F

Clear.


Feels Like: 48 °F
Forecast: 49 / 67 °F
Wind: 6 mph from Northwest

Location: Metro Oakland International Airport

Current Time: Feb 10, 2016 at 5:06:15 AM

Latest Report: Feb 10, 2016 at 3:53 AM


Visibility: 8 mi

Pressure: 30.21 "Hg

Humidity: 89%

Dew point: 47 °F

Location of OaklandLocation

Historic Weather in Oakland — Graph

°F

Oakland Temperature Yesterday

Maximum temperature yesterday: 68 °F (at 2:53 PM)
Minimum temperature yesterday: 46 °F (at 6:53 AM)
Average temperature yesterday: 57 °F

High & Low Weather Summary for the Past Weeks

 TemperatureHumidityPressure
High79 °F (Feb 8, 1:53 PM)97% (Jan 29, 6:53 PM)30.47 "Hg (Jan 29, 6:53 PM)
Low41 °F (Feb 3, 4:53 AM)23% (Feb 8, 1:53 PM)29.76 "Hg (Jan 31, 2:53 PM)
Average54 °F70%30.23 "Hg
* Reported Jan 26 3:53 AM — Feb 10 3:53 AM, Oakland, Weather by CustomWeather, © 2016

Note: Actual official high and low records may vary slightly from our data, if they occured in-between our weather recording intervals... More about our weather records

Advertising

Oakland Weather History for the Previous 24 Hours

 ConditionsComfort  
Time TempWeatherWind HumidityBarometerVisibility
3:53 AM
Wed, Feb 10
50 °FClear.6 mph89%30.21 "Hg8 mi
2:53 AM51 °FClear.No wind83%30.20 "Hg9 mi
1:53 AM54 °FClear.6 mph86%30.23 "Hg8 mi
12:53 AM54 °FClear.5 mph86%30.20 "Hg8 mi
11:53 PM
Tue, Feb 9
55 °FPassing clouds.3 mph80%30.20 "Hg10 mi
10:53 PM53 °FPassing clouds.5 mph83%30.19 "Hg7 mi
9:53 PM57 °FPassing clouds.No wind78%30.17 "Hg9 mi
8:53 PM60 °FPassing clouds.5 mph72%30.17 "Hg10 mi
7:53 PM59 °FPassing clouds.No wind78%30.17 "Hg8 mi
6:53 PM60 °FClear.7 mph75%30.16 "Hg10 mi
5:53 PM63 °FPassing clouds.8 mph65%30.16 "Hg10 mi
4:53 PM67 °FPartly sunny.8 mph55%30.15 "Hg10 mi
3:53 PM68 °FPartly sunny.7 mph55%30.14 "Hg10 mi
2:53 PM68 °FPartly sunny.8 mph45%30.14 "Hg10 mi
1:53 PM67 °FPartly sunny.7 mph51%30.14 "Hg10 mi
12:53 PM66 °FPartly sunny.8 mph52%30.14 "Hg10 mi
11:53 AM63 °FPartly sunny.9 mph54%30.19 "Hg10 mi
10:53 AM60 °FPartly sunny.5 mph69%30.23 "Hg10 mi
9:53 AM59 °FPartly sunny.5 mph72%30.24 "Hg10 mi
8:53 AM57 °FScattered clouds.3 mph78%30.23 "Hg10 mi
7:53 AM53 °FPassing clouds.5 mph72%30.20 "Hg10 mi
6:53 AM46 °FPassing clouds.3 mph83%30.20 "Hg10 mi
5:53 AM47 °FClear.No wind80%30.19 "Hg10 mi
Weather by CustomWeather, © 2016

See weather overviewHow to use our weather pages